Regional Weather Roundup
Issued by NWS

Home | Current Version | Previous Version | Text Only | Print | Product List | Glossary Off
Versions: 1 2 3 4 5 6 7 8 9 10 11 12 13 14 15 16 17 18 19 20 21 22 23 24 25 26 27 28 29 30 31 32 33 34 35 36 37 38 39 40 41 42 43 44 45 46 47 48 49 50

000
ASUS44 KMEG 310100
RWRTN
TENNESSEE HOURLY STATE WEATHER ROUNDUP
NATIONAL WEATHER SERVICE MEMPHIS TN
800 PM CDT MON MAY 30 2016

TNZ002-004-019-021-049-052-054-088>092-310200-
WEST TENNESSEE

CITY           SKY/WX    TMP DP  RH WIND       PRES   REMARKS
MEMPHIS INTL   CLOUDY    84  62  47 E7        29.96R
NWS MEMPHIS      N/A     78 N/A N/A MISG        N/A
JACKSON        CLOUDY    78  67  68 CALM      29.97S
DYERSBURG      CLOUDY    81  64  57 E3        29.96S
UNION CITY     CLEAR     81  64  57 CALM      29.97S
PARIS          CLEAR     73  64  73 CALM      30.00R
LEXINGTON      CLEAR     75  66  73 CALM      29.97S
$$

TNZ008-025-027-028-033-062-065-066-310200-
NORTH MIDDLE TENNESSEE

CITY           SKY/WX    TMP DP  RH WIND       PRES   REMARKS
NASHVILLE      PTCLDY    81  56  42 NE7       29.97S
CLARKSVILLE    CLOUDY    76  61  59 N5        29.98R
COOKEVILLE     CLEAR     73  66  78 CALM      29.98S
CROSSVILLE     CLEAR     75  57  53 NW5       30.03S
$$

TNZ061-075-076-078-094-096-097-310200-
SOUTH MIDDLE TENNESSEE

CITY           SKY/WX    TMP DP  RH WIND       PRES   REMARKS
TULLAHOMA      CLEAR     75  57  53 N3        29.99S
WINCHESTER     CLEAR     79  59  50 N3        29.98R
MCMINNVILLE    CLEAR     75  61  60 NE5       29.98F
COLUMBIA       CLEAR     81  61  50 CALM      29.97R
SHELBYVILLE    CLEAR     81  59  47 NE5       29.99R
$$

TNZ017-018-042-046-047-310200-
NORTHEAST TENNESSEE

CITY           SKY/WX    TMP DP  RH WIND       PRES   REMARKS
TRI CITIES     PTCLDY    74  61  63 SW5       30.00R
$$

TNZ012-013-036-069-073-074-310200-
CENTRAL EAST TENNESSEE

CITY           SKY/WX    TMP DP  RH WIND       PRES   REMARKS
KNOXVILLE      PTCLDY    71  67  87 NE5       29.96R
OAK RIDGE      PTCLDY    80  61  52 E3        29.98R
GATLINBURG     CLEAR     72  61  68 CALM      29.97R
$$

TNZ083-085-099-310200-
SOUTHEAST TENNESSEE

CITY           SKY/WX    TMP DP  RH WIND       PRES   REMARKS
CHATTANOOGA    PTCLDY    82  61  48 CALM      29.94R
$$

SKY/WX REPORTED AS FAIR MEANS FEW OR NO CLOUDS BELOW
12 THOUSAND FEET.





USA.gov is the U.S. government's official web portal to all federal, state and local government web resources and services.